GLOBALSTAR M069 1 31573U 07020C 26126.85697558 -.00000074 00000+0 16785-3 0 9999 2 31573 52.0061 9.1060 0002578 66.3408 14.0295 12.23470530873747 GLOBALSTAR M072 1 31574U 07020D 26126.63555662 -.00000051 00000+0 45622-3 0 9992 2 31574 51.9924 210.8685 0001397 210.9513 298.0346 11.91657770870026 GLOBALSTAR M066 1 32265U 07048C 26126.58513005 -.00000091 00000+0 31711-4 0 9998 2 32265 51.9572 177.3415 0004608 312.1909 202.6155 12.30388179855102 GLOBALSTAR M079 1 37188U 10054A 26126.23607145 -.00000067 00000+0 20672-3 0 9995 2 37188 52.0041 236.3756 0000390 154.3412 213.2741 12.62265420717257 GLOBALSTAR M074 1 37189U 10054B 26126.68910794 -.00000074 00000+0 16611-3 0 9998 2 37189 52.0017 234.2684 0000505 114.6824 32.4550 12.62267824717914 GLOBALSTAR M076 1 37190U 10054C 26126.71622219 -.00000079 00000+0 13629-3 0 9997 2 37190 52.0028 234.3837 0000303 103.5581 47.8699 12.62272565717633 GLOBALSTAR M077 1 37191U 10054D 26126.78309725 -.00000092 00000+0 -25842-3 0 9995 2 37191 51.9970 284.3860 0003295 99.9747 8.6779 11.67547241716301 GLOBALSTAR M075 1 37192U 10054E 26126.89066677 -.00000079 00000+0 13745-3 0 9997 2 37192 51.9953 275.9316 0000746 115.4057 48.1988 12.62266445716728 GLOBALSTAR M073 1 37193U 10054F 26126.39746800 -.00000085 00000+0 10744-3 0 9999 2 37193 52.0053 191.5018 0000150 191.6712 248.6574 12.62266790718652 GLOBALSTAR M083 1 37739U 11033A 26126.33609943 -.00000110 00000+0 -36464-4 0 9991 2 37739 51.9841 139.9725 0000126 292.1023 170.7618 12.62262739687666 GLOBALSTAR M088 1 37740U 11033B 26126.48389728 -.00000098 00000+0 31032-4 0 9995 2 37740 52.0232 45.8490 0000668 64.4498 108.2393 12.62263176683225 GLOBALSTAR M091 1 37741U 11033C 26126.87246661 -.00000094 00000+0 52213-4 0 9997 2 37741 52.0023 7.6935 0000679 90.9915 349.7428 12.62263014684069 GLOBALSTAR M085 1 37742U 11033D 26126.86483477 -.00000091 00000+0 72735-4 0 9993 2 37742 52.0138 318.9735 0000720 113.2900 352.9155 12.62263151684574 GLOBALSTAR M081 1 37743U 11033E 26126.55597869 -.00000086 00000+0 96843-4 0 9991 2 37743 51.9972 322.3979 0000710 92.8671 288.5153 12.62264037684682 GLOBALSTAR M089 1 37744U 11033F 26126.44014095 -.00000085 00000+0 10402-3 0 9990 2 37744 51.9935 276.9170 0000795 91.4897 303.7703 12.62266220685517 GLOBALSTAR M084 1 38040U 11080A 26126.36925872 -.00000108 00000+0 -23219-4 0 9995 2 38040 51.9986 144.5911 0000332 36.1610 336.7714 12.62266910663488 GLOBALSTAR M080 1 38041U 11080B 26126.34096031 -.00000105 00000+0 -51106-5 0 9994 2 38041 52.0039 146.3815 0000478 157.7268 216.3589 12.62268860663606 GLOBALSTAR M082 1 38042U 11080C 26126.83398321 -.00000117 00000+0 -73511-4 0 9992 2 38042 52.0060 100.3742 0000198 120.9504 264.7150 12.62269423664376 GLOBALSTAR M092 1 38043U 11080D 26126.48828154 -.00000087 00000+0 91633-4 0 9996 2 38043 52.0072 191.8245 0000309 129.9290 243.3281 12.62266994662789 GLOBALSTAR M090 1 38044U 11080E 26126.33335752 -.00000118 00000+0 -78685-4 0 9996 2 38044 52.0109 95.8403 0000250 37.7294 110.9813 12.62268330664424 GLOBALSTAR M086 1 38045U 11080F 26126.88133546 -.00000101 00000+0 16049-4 0 9991 2 38045 51.9884 94.1699 0001043 338.0533 40.1453 12.62285748664444 GLOBALSTAR M097 1 39072U 13005A 26126.82824192 -.00000099 00000+0 28861-4 0 9990 2 39072 52.0075 9.2326 0000569 82.1866 277.9065 12.62260094611685 GLOBALSTAR M093 1 39073U 13005B 26126.80195454 -.00000091 00000+0 73776-4 0 9998 2 39073 52.0129 2.6461 0000445 84.3765 275.7153 12.62264894611639 GLOBALSTAR M094 1 39074U 13005C 26126.40605885 -.00000090 00000+0 79354-4 0 9996 2 39074 51.9957 278.0104 0000571 127.6028 232.4891 12.62268042613194 GLOBALSTAR M096 1 39075U 13005D 26126.73614340 -.00000097 00000+0 36247-4 0 9990 2 39075 52.0086 325.7745 0000691 105.8682 254.2261 12.62264634612159 GLOBALSTAR M078 1 39076U 13005E 26126.47148100 -.00000052 00000+0 28801-3 0 9995 2 39076 51.9892 50.6419 0000949 138.0701 222.0238 12.62266531610749 GLOBALSTAR M095 1 39077U 13005F 26126.49829660 -.00000098 00000+0 30436-4 0 9993 2 39077 52.0098 48.1064 0000365 109.6308 250.4599 12.62267354610601 GLOBALSTAR M087 1 52888U 22064A 26126.43255190 -.00000084 00000+0 10815-3 0 9991 2 52888 51.9985 189.5741 0000375 182.0063 178.0803 12.62268742185865